Time,TemperatureF,DewpointF,PressureIn,WindDirection,WindDirectionDegrees,WindSpeedMPH,WindSpeedGustMPH,Humidity,HourlyPrecipIn,Conditions,Clouds,dailyrainin,SoftwareType,DateUTC
2013-09-12 00:06:00,55.2,53.2,30.07,ENE,67,0.0,0.0,93,0.00,,,0.00,WeatherCatV1.21B27,2013-09-11 23:06:00,
2013-09-12 00:16:00,55.2,53.2,30.07,ENE,67,0.0,0.0,93,0.00,,,0.00,WeatherCatV1.21B27,2013-09-11 23:16:00,
2013-09-12 00:26:00,55.2,53.2,30.07,ENE,67,0.0,0.0,93,0.00,,,0.00,WeatherCatV1.21B27,2013-09-11 23:26:00,
2013-09-12 00:36:00,55.0,53.0,30.06,ENE,67,0.0,0.0,93,0.00,,,0.00,WeatherCatV1.21B27,2013-09-11 23:36:00,
2013-09-12 00:46:00,55.0,53.0,30.06,ENE,67,0.0,0.0,93,0.00,,,0.00,WeatherCatV1.21B27,2013-09-11 23:46:00,
2013-09-12 00:56:00,55.0,53.0,30.06,ENE,67,0.0,0.0,93,0.00,,,0.00,WeatherCatV1.21B27,2013-09-11 23:56:00,
2013-09-12 01:06:00,54.9,52.7,30.06,ENE,67,0.0,0.0,93,0.00,,,0.00,WeatherCatV1.21B27,2013-09-12 00:06:00,
2013-09-12 01:16:00,54.5,52.5,30.06,ENE,67,0.0,0.0,93,0.00,,,0.00,WeatherCatV1.21B27,2013-09-12 00:16:00,
2013-09-12 01:26:00,54.0,51.9,30.05,ENE,67,0.0,0.0,93,0.00,,,0.00,WeatherCatV1.21B27,2013-09-12 00:26:00,
2013-09-12 01:36:00,53.1,51.2,30.05,ENE,67,0.0,0.0,93,0.00,,,0.00,WeatherCatV1.21B27,2013-09-12 00:36:00,
2013-09-12 01:46:00,52.5,50.5,30.05,ENE,67,0.0,0.0,93,0.00,,,0.00,WeatherCatV1.21B27,2013-09-12 00:46:00,
2013-09-12 01:56:00,52.2,50.1,30.05,ENE,67,0.0,0.0,93,0.00,,,0.00,WeatherCatV1.21B27,2013-09-12 00:56:00,
2013-09-12 02:06:00,52.0,50.0,30.05,ENE,67,0.0,0.0,93,0.00,,,0.00,WeatherCatV1.21B27,2013-09-12 01:06:00,
2013-09-12 02:16:00,52.0,50.0,30.05,ENE,67,0.0,0.0,93,0.00,,,0.00,WeatherCatV1.21B27,2013-09-12 01:16:00,
2013-09-12 02:26:00,52.2,50.1,30.05,ENE,67,0.0,0.0,93,0.00,,,0.00,WeatherCatV1.21B27,2013-09-12 01:26:00,
2013-09-12 02:36:00,52.3,50.6,30.05,ENE,67,0.0,0.0,94,0.00,,,0.00,WeatherCatV1.21B27,2013-09-12 01:36:00,
2013-09-12 02:46:00,52.5,50.8,30.04,ENE,67,0.0,0.0,94,0.00,,,0.00,WeatherCatV1.21B27,2013-09-12 01:46:00,
2013-09-12 02:56:00,52.5,50.8,30.04,ENE,67,0.0,0.0,94,0.00,,,0.00,WeatherCatV1.21B27,2013-09-12 01:56:00,
2013-09-12 03:06:00,52.5,50.8,30.04,ENE,67,0.0,0.0,94,0.00,,,0.00,WeatherCatV1.21B27,2013-09-12 02:06:00,
2013-09-12 03:16:00,52.5,50.8,30.04,ENE,67,0.0,0.0,94,0.00,,,0.00,WeatherCatV1.21B27,2013-09-12 02:16:00,
2013-09-12 03:26:00,52.7,51.0,30.04,ENE,67,0.0,0.0,94,0.00,,,0.00,WeatherCatV1.21B27,2013-09-12 02:26:00,
2013-09-12 03:36:00,52.7,51.0,30.04,ENE,67,0.0,0.0,94,0.00,,,0.00,WeatherCatV1.21B27,2013-09-12 02:36:00,
2013-09-12 03:46:00,52.3,50.6,30.04,ENE,67,0.0,0.0,94,0.00,,,0.00,WeatherCatV1.21B27,2013-09-12 02:46:00,
2013-09-12 03:56:00,52.2,50.4,30.04,ENE,67,0.0,0.0,94,0.00,,,0.00,WeatherCatV1.21B27,2013-09-12 02:56:00,
2013-09-12 04:06:00,52.0,50.2,30.04,ENE,67,0.0,0.0,94,0.00,,,0.00,WeatherCatV1.21B27,2013-09-12 03:06:00,
2013-09-12 04:16:00,52.0,50.2,30.04,ENE,67,0.0,0.0,94,0.00,,,0.00,WeatherCatV1.21B27,2013-09-12 03:16:00,
2013-09-12 04:26:00,51.6,49.9,30.03,ENE,67,0.0,0.0,94,0.00,,,0.00,WeatherCatV1.21B27,2013-09-12 03:26:00,
2013-09-12 04:36:00,51.6,50.2,30.03,ENE,67,0.0,0.0,95,0.00,,,0.00,WeatherCatV1.21B27,2013-09-12 03:36:00,
2013-09-12 04:46:00,51.6,50.2,30.03,ENE,67,0.0,0.0,95,0.00,,,0.00,WeatherCatV1.21B27,2013-09-12 03:46:00,
2013-09-12 04:56:00,52.0,50.5,30.03,ENE,67,0.0,0.0,95,0.00,,,0.00,WeatherCatV1.21B27,2013-09-12 03:56:00,
2013-09-12 05:06:00,52.2,50.7,30.03,ENE,67,0.0,0.0,95,0.00,,,0.00,WeatherCatV1.21B27,2013-09-12 04:06:00,
2013-09-12 05:16:00,52.3,50.9,30.03,ENE,67,0.0,0.0,95,0.00,,,0.00,WeatherCatV1.21B27,2013-09-12 04:16:00,
2013-09-12 05:26:00,52.5,51.1,30.03,ENE,67,0.0,0.0,95,0.00,,,0.00,WeatherCatV1.21B27,2013-09-12 04:26:00,
2013-09-12 05:36:00,52.7,51.3,30.03,ENE,67,0.0,0.0,95,0.00,,,0.00,WeatherCatV1.21B27,2013-09-12 04:36:00,
2013-09-12 05:46:00,52.9,51.4,30.02,ENE,67,0.0,0.0,95,0.00,,,0.00,WeatherCatV1.21B27,2013-09-12 04:46:00,
2013-09-12 05:56:00,53.2,51.8,30.02,ENE,67,0.0,0.0,95,0.00,,,0.00,WeatherCatV1.21B27,2013-09-12 04:56:00,
2013-09-12 06:06:00,53.2,51.8,30.02,ENE,67,0.0,0.0,95,0.00,,,0.00,WeatherCatV1.21B27,2013-09-12 05:06:00,
2013-09-12 06:16:00,53.4,52.0,30.02,NE,45,0.0,0.0,95,0.00,,,0.00,WeatherCatV1.21B27,2013-09-12 05:16:00,
2013-09-12 06:26:00,53.8,52.3,30.01,NE,45,0.0,0.0,95,0.00,,,0.00,WeatherCatV1.21B27,2013-09-12 05:26:00,
2013-09-12 06:36:00,53.8,52.3,30.02,NE,45,0.0,0.0,95,0.00,,,0.00,WeatherCatV1.21B27,2013-09-12 05:36:00,
2013-09-12 06:46:00,53.8,52.3,30.02,NNE,22,0.0,0.0,95,0.00,,,0.00,WeatherCatV1.21B27,2013-09-12 05:46:00,
2013-09-12 06:56:00,53.8,52.3,30.01,East,90,0.0,0.0,95,0.00,,,0.00,WeatherCatV1.21B27,2013-09-12 05:56:00,
2013-09-12 07:06:00,53.8,52.3,30.01,East,90,0.0,0.0,95,0.00,,,0.00,WeatherCatV1.21B27,2013-09-12 06:06:00,
2013-09-12 07:16:00,54.0,52.5,30.01,East,90,0.0,0.0,95,0.00,,,0.00,WeatherCatV1.21B27,2013-09-12 06:16:00,
2013-09-12 07:26:00,54.0,52.5,30.02,East,90,0.0,0.0,95,0.00,,,0.00,WeatherCatV1.21B27,2013-09-12 06:26:00,
2013-09-12 07:36:00,54.3,52.9,30.02,ENE,67,0.0,0.0,95,0.00,,,0.00,WeatherCatV1.21B27,2013-09-12 06:36:00,
2013-09-12 07:46:00,54.1,52.7,30.01,ENE,67,0.0,0.0,95,0.00,,,0.00,WeatherCatV1.21B27,2013-09-12 06:46:00,
2013-09-12 07:56:00,53.8,52.3,30.01,ENE,67,0.0,0.0,95,0.00,,,0.00,WeatherCatV1.21B27,2013-09-12 06:56:00,
2013-09-12 08:06:00,53.8,52.3,30.01,ENE,67,0.0,0.0,95,0.00,,,0.00,WeatherCatV1.21B27,2013-09-12 07:06:00,
2013-09-12 08:16:00,54.1,52.7,30.01,North,0,0.0,0.0,95,0.00,,,0.00,WeatherCatV1.21B27,2013-09-12 07:16:00,
2013-09-12 08:26:00,54.5,53.1,30.00,NNE,22,0.0,0.0,95,0.00,,,0.00,WeatherCatV1.21B27,2013-09-12 07:26:00,
2013-09-12 08:36:00,55.6,54.1,30.00,NNE,22,0.0,0.0,95,0.00,,,0.00,WeatherCatV1.21B27,2013-09-12 07:36:00,
2013-09-12 08:46:00,56.5,55.0,30.00,ESE,112,0.0,0.0,95,0.00,,,0.00,WeatherCatV1.21B27,2013-09-12 07:46:00,
2013-09-12 08:56:00,57.0,55.3,30.00,North,0,0.0,0.0,94,0.00,,,0.00,WeatherCatV1.21B27,2013-09-12 07:56:00,
2013-09-12 09:06:00,57.4,55.4,30.00,West,270,0.0,0.0,93,0.00,,,0.00,WeatherCatV1.21B27,2013-09-12 08:06:00,
2013-09-12 09:16:00,57.4,54.8,30.00,North,0,0.0,0.0,91,0.00,,,0.00,WeatherCatV1.21B27,2013-09-12 08:16:00,
2013-09-12 09:26:00,57.6,54.7,30.00,NNE,22,0.0,0.0,90,0.00,,,0.00,WeatherCatV1.21B27,2013-09-12 08:26:00,
2013-09-12 09:36:00,58.3,55.1,30.00,WNW,292,2.0,2.0,89,0.00,,,0.00,WeatherCatV1.21B27,2013-09-12 08:36:00,
2013-09-12 09:46:00,58.8,55.3,30.00,NE,45,0.0,1.6,88,0.00,,,0.00,WeatherCatV1.21B27,2013-09-12 08:46:00,
2013-09-12 09:56:00,59.2,55.3,30.00,North,0,0.0,0.0,87,0.00,,,0.00,WeatherCatV1.21B27,2013-09-12 08:56:00,
2013-09-12 10:06:00,59.4,55.2,29.99,North,0,0.0,0.0,86,0.00,,,0.00,WeatherCatV1.21B27,2013-09-12 09:06:00,
2013-09-12 10:16:00,59.5,55.0,29.99,North,0,0.0,2.2,85,0.00,,,0.00,WeatherCatV1.21B27,2013-09-12 09:16:00,
2013-09-12 10:26:00,60.1,54.9,29.99,NNE,22,0.0,0.0,83,0.00,,,0.00,WeatherCatV1.21B27,2013-09-12 09:26:00,
2013-09-12 10:36:00,60.1,54.6,29.98,South,180,0.0,2.5,82,0.00,,,0.00,WeatherCatV1.21B27,2013-09-12 09:36:00,
2013-09-12 10:46:00,60.6,55.5,29.98,ESE,112,0.0,0.0,83,0.00,,,0.00,WeatherCatV1.21B27,2013-09-12 09:46:00,
2013-09-12 10:56:00,61.2,55.3,29.98,North,0,0.0,1.1,81,0.00,,,0.00,WeatherCatV1.21B27,2013-09-12 09:56:00,
2013-09-12 11:06:00,61.5,55.7,29.98,SW,225,0.0,1.8,81,0.00,,,0.00,WeatherCatV1.21B27,2013-09-12 10:06:00,
2013-09-12 11:16:00,61.9,56.0,29.97,SSW,202,0.0,0.7,81,0.00,,,0.00,WeatherCatV1.21B27,2013-09-12 10:16:00,
2013-09-12 11:26:00,61.9,56.0,29.97,SSE,157,0.0,0.0,81,0.00,,,0.00,WeatherCatV1.21B27,2013-09-12 10:26:00,
2013-09-12 11:36:00,61.9,56.0,29.97,NNE,22,0.0,0.0,81,0.00,,,0.00,WeatherCatV1.21B27,2013-09-12 10:36:00,
2013-09-12 11:46:00,61.9,56.0,29.97,ENE,67,0.0,0.0,81,0.00,,,0.00,WeatherCatV1.21B27,2013-09-12 10:46:00,
2013-09-12 11:56:00,62.6,56.5,29.96,SSE,157,0.0,2.2,81,0.00,,,0.00,WeatherCatV1.21B27,2013-09-12 10:56:00,
2013-09-12 12:06:00,63.0,56.7,29.95,SSE,157,0.0,0.0,80,0.00,,,0.00,WeatherCatV1.21B27,2013-09-12 11:06:00,
2013-09-12 12:16:00,63.3,57.0,29.96,North,0,3.1,3.1,80,0.00,,,0.00,WeatherCatV1.21B27,2013-09-12 11:16:00,
2013-09-12 12:26:00,64.2,57.2,29.95,ESE,112,0.0,1.6,78,0.00,,,0.00,WeatherCatV1.21B27,2013-09-12 11:26:00,
2013-09-12 12:36:00,64.6,57.2,29.95,North,0,2.0,2.0,77,0.00,,,0.00,WeatherCatV1.21B27,2013-09-12 11:36:00,
2013-09-12 12:46:00,64.9,56.4,29.95,North,0,0.0,1.6,74,0.00,,,0.00,WeatherCatV1.21B27,2013-09-12 11:46:00,
2013-09-12 12:56:00,65.1,56.2,29.95,SE,135,0.0,1.3,73,0.00,,,0.00,WeatherCatV1.21B27,2013-09-12 11:56:00,
2013-09-12 13:06:00,65.5,55.8,29.95,North,0,0.0,1.8,71,0.00,,,0.00,WeatherCatV1.21B27,2013-09-12 12:06:00,
2013-09-12 13:16:00,65.5,55.8,29.94,SSE,157,1.6,2.0,71,0.00,,,0.00,WeatherCatV1.21B27,2013-09-12 12:16:00,
2013-09-12 13:26:00,66.0,56.3,29.94,SE,135,1.6,1.6,71,0.00,,,0.00,WeatherCatV1.21B27,2013-09-12 12:26:00,
2013-09-12 13:36:00,66.9,55.2,29.94,West,270,0.0,2.5,67,0.00,,,0.00,WeatherCatV1.21B27,2013-09-12 12:36:00,
2013-09-12 13:46:00,67.8,55.6,29.94,SE,135,0.0,2.2,65,0.00,,,0.00,WeatherCatV1.21B27,2013-09-12 12:46:00,
2013-09-12 13:56:00,68.5,55.8,29.94,NE,45,0.0,1.1,64,0.00,,,0.00,WeatherCatV1.21B27,2013-09-12 12:56:00,
2013-09-12 14:06:00,68.7,56.0,29.93,NNW,337,0.0,0.0,64,0.00,,,0.00,WeatherCatV1.21B27,2013-09-12 13:06:00,
2013-09-12 14:16:00,68.5,56.7,29.93,SW,225,0.0,3.6,66,0.00,,,0.00,WeatherCatV1.21B27,2013-09-12 13:16:00,
2013-09-12 14:26:00,68.4,57.4,29.93,SSE,157,0.0,0.0,68,0.00,,,0.00,WeatherCatV1.21B27,2013-09-12 13:26:00,
2013-09-12 14:36:00,68.5,57.5,29.93,SSE,157,0.0,2.5,68,0.00,,,0.00,WeatherCatV1.21B27,2013-09-12 13:36:00,
2013-09-12 14:46:00,68.2,57.4,29.93,SSE,157,0.0,1.8,68,0.00,,,0.00,WeatherCatV1.21B27,2013-09-12 13:46:00,
2013-09-12 14:56:00,68.4,57.4,29.92,WNW,292,0.0,5.1,68,0.00,,,0.00,WeatherCatV1.21B27,2013-09-12 13:56:00,
2013-09-12 15:06:00,68.5,58.0,29.92,North,0,0.0,2.9,69,0.00,,,0.00,WeatherCatV1.21B27,2013-09-12 14:06:00,
2013-09-12 15:16:00,67.6,57.1,29.91,ENE,67,2.5,2.5,69,0.00,,,0.00,WeatherCatV1.21B27,2013-09-12 14:16:00,
2013-09-12 15:26:00,66.7,57.0,29.91,SSE,157,1.8,1.8,71,0.00,,,0.00,WeatherCatV1.21B27,2013-09-12 14:26:00,
2013-09-12 15:36:00,66.0,56.7,29.91,North,0,0.0,3.6,72,0.00,,,0.00,WeatherCatV1.21B27,2013-09-12 14:36:00,
2013-09-12 15:46:00,65.1,56.6,29.91,NW,315,4.5,4.5,74,0.00,,,0.00,WeatherCatV1.21B27,2013-09-12 14:46:00,
2013-09-12 15:56:00,64.2,56.1,29.90,WNW,292,1.1,1.1,75,0.00,,,0.00,WeatherCatV1.21B27,2013-09-12 14:56:00,
2013-09-12 16:06:00,63.3,55.6,29.90,WNW,292,0.0,4.2,76,0.00,,,0.00,WeatherCatV1.21B27,2013-09-12 15:06:00,
2013-09-12 16:16:00,63.0,55.9,29.89,SE,135,0.0,0.0,78,0.00,,,0.00,WeatherCatV1.21B27,2013-09-12 15:16:00,
2013-09-12 16:26:00,63.0,55.9,29.90,NNE,22,0.0,1.6,78,0.00,,,0.00,WeatherCatV1.21B27,2013-09-12 15:26:00,
2013-09-12 16:36:00,63.0,55.9,29.89,SE,135,4.0,4.5,78,0.00,,,0.00,WeatherCatV1.21B27,2013-09-12 15:36:00,
2013-09-12 16:46:00,62.6,55.9,29.89,SSE,157,1.3,1.8,79,0.00,,,0.00,WeatherCatV1.21B27,2013-09-12 15:46:00,
2013-09-12 16:56:00,61.9,56.0,29.90,SSE,157,1.3,1.3,81,0.00,,,0.00,WeatherCatV1.21B27,2013-09-12 15:56:00,
2013-09-12 17:06:00,61.3,56.1,29.89,SE,135,0.0,0.0,83,0.00,,,0.00,WeatherCatV1.21B27,2013-09-12 16:06:00,
2013-09-12 17:16:00,60.6,55.8,29.90,NW,315,0.0,2.9,84,0.00,,,0.00,WeatherCatV1.21B27,2013-09-12 16:16:00,
2013-09-12 17:26:00,60.1,55.9,29.89,South,180,0.0,0.9,86,0.00,,,0.00,WeatherCatV1.21B27,2013-09-12 16:26:00,
2013-09-12 17:36:00,60.1,56.0,29.89,SSE,157,0.0,2.0,87,0.02,,,0.02,WeatherCatV1.21B27,2013-09-12 16:36:00,
2013-09-12 17:46:00,59.9,56.0,29.88,SSE,157,0.0,0.0,87,0.02,,,0.02,WeatherCatV1.21B27,2013-09-12 16:46:00,
2013-09-12 17:56:00,59.5,56.2,29.88,SE,135,0.0,0.0,88,0.02,,,0.02,WeatherCatV1.21B27,2013-09-12 16:56:00,
2013-09-12 18:06:00,59.5,56.0,29.88,South,180,0.0,0.9,88,0.02,,,0.02,WeatherCatV1.21B27,2013-09-12 17:06:00,
2013-09-12 18:16:00,59.2,56.0,29.88,NNE,22,0.0,1.1,89,0.02,,,0.02,WeatherCatV1.21B27,2013-09-12 17:16:00,
2013-09-12 18:26:00,59.2,56.0,29.88,SE,135,0.0,0.0,89,0.04,,,0.04,WeatherCatV1.21B27,2013-09-12 17:26:00,
2013-09-12 18:36:00,59.0,56.1,29.88,SW,225,0.0,1.3,90,0.02,,,0.04,WeatherCatV1.21B27,2013-09-12 17:36:00,
2013-09-12 18:46:00,59.0,56.1,29.87,SSW,202,0.0,0.0,90,0.02,,,0.04,WeatherCatV1.21B27,2013-09-12 17:46:00,
2013-09-12 18:56:00,58.8,55.9,29.87,SW,225,0.0,0.0,90,0.02,,,0.04,WeatherCatV1.21B27,2013-09-12 17:56:00,
2013-09-12 19:06:00,59.0,56.1,29.87,NNW,337,0.0,0.0,90,0.02,,,0.04,WeatherCatV1.21B27,2013-09-12 18:06:00,
2013-09-12 19:16:00,59.2,56.3,29.87,NNW,337,0.0,0.0,90,0.00,,,0.04,WeatherCatV1.21B27,2013-09-12 18:16:00,
2013-09-12 19:26:00,59.5,56.7,29.87,WNW,292,0.7,1.1,90,0.00,,,0.04,WeatherCatV1.21B27,2013-09-12 18:26:00,
2013-09-12 19:36:00,59.7,56.8,29.88,NNW,337,0.0,0.0,90,0.00,,,0.04,WeatherCatV1.21B27,2013-09-12 18:36:00,
2013-09-12 19:46:00,59.7,57.1,29.87,NW,315,0.0,0.0,90,0.00,,,0.04,WeatherCatV1.21B27,2013-09-12 18:46:00,
2013-09-12 19:57:00,59.7,57.1,29.88,NW,315,0.0,0.0,91,0.00,,,0.04,WeatherCatV1.21B27,2013-09-12 18:57:00,
2013-09-12 20:06:00,59.7,57.1,29.87,NW,315,0.0,0.0,91,0.00,,,0.04,WeatherCatV1.21B27,2013-09-12 19:06:00,
2013-09-12 20:15:00,59.7,57.1,29.88,NE,45,0.0,1.3,91,0.00,,,0.04,WeatherCatV1.21B27,2013-09-12 19:15:00,
2013-09-12 20:25:00,59.7,57.1,29.88,SE,135,0.0,0.0,91,0.00,,,0.04,WeatherCatV1.21B27,2013-09-12 19:25:00,
2013-09-12 20:35:00,59.5,57.0,29.88,ESE,112,0.0,1.6,91,0.00,,,0.04,WeatherCatV1.21B27,2013-09-12 19:35:00,
2013-09-12 20:45:00,59.5,57.2,29.89,East,90,0.0,0.0,92,0.00,,,0.04,WeatherCatV1.21B27,2013-09-12 19:45:00,
2013-09-12 20:55:00,59.5,57.2,29.89,NE,45,0.0,1.6,92,0.00,,,0.04,WeatherCatV1.21B27,2013-09-12 19:55:00,
2013-09-12 21:05:00,59.5,57.2,29.89,NNE,22,0.0,0.0,92,0.00,,,0.04,WeatherCatV1.21B27,2013-09-12 20:05:00,
2013-09-12 21:15:00,59.5,57.2,29.89,NW,315,0.0,1.1,92,0.00,,,0.04,WeatherCatV1.21B27,2013-09-12 20:15:00,
2013-09-12 21:25:00,59.4,57.2,29.90,WNW,292,0.0,3.1,92,0.00,,,0.04,WeatherCatV1.21B27,2013-09-12 20:25:00,
2013-09-12 21:35:00,59.0,56.7,29.90,NW,315,0.0,0.7,92,0.00,,,0.04,WeatherCatV1.21B27,2013-09-12 20:35:00,
2013-09-12 21:45:00,58.8,56.5,29.91,SSE,157,0.0,0.0,92,0.00,,,0.04,WeatherCatV1.21B27,2013-09-12 20:45:00,
2013-09-12 21:55:00,58.6,56.3,29.91,SSE,157,0.0,2.5,92,0.00,,,0.04,WeatherCatV1.21B27,2013-09-12 20:55:00,
2013-09-12 22:05:00,58.5,56.2,29.91,SSE,157,0.0,0.9,92,0.00,,,0.04,WeatherCatV1.21B27,2013-09-12 21:05:00,
2013-09-12 22:15:00,58.3,56.0,29.91,SSW,202,0.0,0.0,92,0.00,,,0.04,WeatherCatV1.21B27,2013-09-12 21:15:00,
2013-09-12 22:25:00,57.9,55.6,29.91,WSW,247,0.0,3.4,92,0.00,,,0.04,WeatherCatV1.21B27,2013-09-12 21:25:00,
2013-09-12 22:35:00,57.7,55.2,29.92,ESE,112,0.0,4.5,91,0.00,,,0.04,WeatherCatV1.21B27,2013-09-12 21:35:00,
2013-09-12 22:45:00,57.4,54.8,29.92,SE,135,0.0,1.8,91,0.00,,,0.04,WeatherCatV1.21B27,2013-09-12 21:45:00,
2013-09-12 22:55:00,57.4,54.8,29.92,North,0,0.0,2.0,91,0.00,,,0.04,WeatherCatV1.21B27,2013-09-12 21:55:00,
2013-09-12 23:05:00,57.0,54.4,29.93,South,180,0.0,3.8,91,0.00,,,0.04,WeatherCatV1.21B27,2013-09-12 22:05:00,
2013-09-12 23:15:00,56.5,53.9,29.93,NW,315,1.3,4.5,91,0.00,,,0.04,WeatherCatV1.21B27,2013-09-12 22:15:00,
2013-09-12 23:25:00,55.9,53.3,29.93,SE,135,0.0,1.8,91,0.00,,,0.04,WeatherCatV1.21B27,2013-09-12 22:25:00,
2013-09-12 23:35:00,55.4,52.8,29.93,North,0,0.0,0.9,91,0.00,,,0.04,WeatherCatV1.21B27,2013-09-12 22:35:00,
2013-09-12 23:45:00,55.0,52.5,29.94,North,0,0.0,3.1,91,0.00,,,0.04,WeatherCatV1.21B27,2013-09-12 22:45:00,
2013-09-12 23:55:00,55.0,52.5,29.94,SE,135,0.0,3.1,91,0.00,,,0.04,WeatherCatV1.21B27,2013-09-12 22:55:00,